Location: *
(45.9500°N, 9.0833°E)
Time: 20:13:02
(UTC+00:00)

Vanguard 2 Rocket - Pass Details

Date: 21 June 2021
Orbit: 555 x 3325 km, 32.9° (Epoch: 30 July)

Event Time Altitude Azimuth Distance (km) Brightness Sun altitude
Rises 17:45:19 0° 229° (SW) 7,106 11.9 13.4°
Reaches altitude 10° 17:50:19 10° 223° (SW) 6,220 11.5 12.5°
Maximum altitude 18:08:29 43° 161° (SSE) 3,933 9.9 9.6°
Drops below altitude 10° 18:23:07 10° 97° (E) 5,104 10.2 7.3°
Sets 18:26:43 0° 91° (E) 5,786 10.4 6.8°
